Powrót do katalogu

SL-8 DEB

AktywnyLEO
NORAD 21254·DEBRIS·🇷🇺 Russia

Wystrzelony Feb 12, 1991 z Plesetsk Cosmodrome

Loading…

Następne Przeloty (najbliższe 24 godziny)

TLE

ŚwieżeSource: Space-Track

Epoka: Sep 14, 2026, 08:23 UTC

1 21254U 91009BM  26257.34932632 -.00000031  00000-0 -10467-3 0  9994
2 21254  73.8920  28.1640 0189238 357.9333  29.0893 12.39411787607287

Śledź SL-8 DEB w czasie rzeczywistym z AllMySat

Download on the App Store